Hundvaag 1 weather for Aug 2002
Month no. 182
Obs.
Da.
Temp. Dew Point Precip. Wind
Speed
Wind gusts Cloud cover Press. Humidity Wind dir. Sunny OPT
01.08.2002 23,3   0,0     10 1011,4     1  
02.08.2002 24,0   0,0     10 1010,6     1  
03.08.2002 18,4   7,2     0 1013,1        
04.08.2002 19,4   1,5     1 1013,2     1  
05.08.2002 17,4   0,0     10 1013,6     1  
06.08.2002 16,5   0,0     10 1014,6     1  
07.08.2002 15,0   0,0     9 1014,0     1  
08.08.2002 16,7   0,0     0 1012,1     1  
09.08.2002 19,1   0,0     1 1009,4     1  
10.08.2002 19,6   0,1     0 1009,2     1  
11.08.2002 18,1   0,4     0 1006,6     1  
12.08.2002 15,1   23,0     4 1005,6     1  
13.08.2002 15,9   0,0     2 1010,8     1  
14.08.2002 15,9   0,1     9 1012,0     1  
15.08.2002 15,7   0,0     8 1013,2     1  
16.08.2002 17,6   1,0     1 1014,7     1  
17.08.2002 18,7   0,0     10 1014,9     1  
18.08.2002 18,7   0,0     10 1013,7     1  
19.08.2002 20,1   0,0     10 1013,2     1  
20.08.2002 18,5   4,5     5 1012,0     1  
21.08.2002 18,6   1,7     1 1011,6     1  
22.08.2002 16,7   0,6     10 1013,4     1  
23.08.2002 17,2   0,0     9 1014,4     1  
24.08.2002 18,7   0,0     3 1014,6     1  
25.08.2002 18,2   0,0     9 1015,9     1  
26.08.2002 17,1   0,0     3 1017,2     1  
27.08.2002 17,4   0,0     7 1014,7     1  
28.08.2002 15,3   0,0     3 1014,7     1  
29.08.2002 15,8   0,0     1 1014,5        
30.08.2002 15,0   15,7     3 1012,1     1  
31.08.2002 13,7   12,6     0 1007,7        
Avrg/Sum 17,7   68,4     5,1 1012,5     28